Time,TemperatureF,DewpointF,PressureIn,WindDirection,WindDirectionDegrees,WindSpeedMPH,WindSpeedGustMPH,Humidity,HourlyPrecipIn,Conditions,Clouds,dailyrainin,SoftwareType,DateUTC
2013-02-11 00:01:00,40.9,32.6,30.05,NNE,22,0.0,0.0,72,0.00,,,0.00,WUHU21623XXSP,2013-02-11 08:01:00,
2013-02-11 00:06:00,40.5,32.6,30.05,NNE,22,0.0,0.0,73,0.00,,,0.00,WUHU21623XXSP,2013-02-11 08:06:00,
2013-02-11 00:11:00,40.2,32.6,30.06,NNE,22,0.0,0.0,74,0.00,,,0.00,WUHU21623XXSP,2013-02-11 08:11:00,
2013-02-11 00:16:00,40.2,32.6,30.05,NNE,22,0.0,0.0,74,0.00,,,0.00,WUHU21623XXSP,2013-02-11 08:16:00,
2013-02-11 00:21:00,40.2,32.6,30.05,NNE,22,0.0,0.0,74,0.00,,,0.00,WUHU21623XXSP,2013-02-11 08:21:00,
2013-02-11 00:26:00,40.0,32.1,30.06,NNE,22,0.0,0.0,73,0.00,,,0.00,WUHU21623XXSP,2013-02-11 08:26:00,
2013-02-11 00:31:00,39.8,31.9,30.06,ENE,67,0.0,0.0,73,0.00,,,0.00,WUHU21623XXSP,2013-02-11 08:31:00,
2013-02-11 00:36:00,39.8,31.9,30.05,ENE,67,0.0,0.0,73,0.00,,,0.00,WUHU21623XXSP,2013-02-11 08:36:00,
2013-02-11 00:41:00,39.8,31.9,30.06,ENE,67,0.0,4.0,73,0.00,,,0.00,WUHU21623XXSP,2013-02-11 08:41:00,
2013-02-11 00:46:00,39.8,31.9,30.06,ENE,67,0.0,4.0,73,0.00,,,0.00,WUHU21623XXSP,2013-02-11 08:46:00,
2013-02-11 00:51:00,39.8,31.6,30.06,East,90,0.0,0.0,72,0.00,,,0.00,WUHU21623XXSP,2013-02-11 08:51:00,
2013-02-11 00:56:00,39.8,31.9,30.06,East,90,0.0,0.0,73,0.00,,,0.00,WUHU21623XXSP,2013-02-11 08:56:00,
2013-02-11 01:01:00,39.6,31.7,30.06,East,90,0.0,0.0,73,0.00,,,0.00,WUHU21623XXSP,2013-02-11 09:01:00,
2013-02-11 01:06:00,39.1,31.2,30.07,SSW,202,0.0,0.0,73,0.00,,,0.00,WUHU21623XXSP,2013-02-11 09:06:00,
2013-02-11 01:11:00,38.9,31.4,30.06,SW,225,0.0,0.0,74,0.00,,,0.00,WUHU21623XXSP,2013-02-11 09:11:00,
2013-02-11 01:16:00,38.9,31.7,30.07,ENE,67,0.0,4.5,75,0.00,,,0.00,WUHU21623XXSP,2013-02-11 09:16:00,
2013-02-11 01:21:00,38.7,31.5,30.07,ENE,67,0.0,4.5,75,0.00,,,0.00,WUHU21623XXSP,2013-02-11 09:21:00,
2013-02-11 01:26:00,38.7,31.5,30.06,ENE,67,0.0,0.0,75,0.00,,,0.00,WUHU21623XXSP,2013-02-11 09:26:00,
2013-02-11 01:31:00,38.6,31.4,30.07,ENE,67,0.0,0.0,75,0.00,,,0.00,WUHU21623XXSP,2013-02-11 09:31:00,
2013-02-11 01:36:00,38.4,31.2,30.07,ENE,67,0.0,0.0,75,0.00,,,0.00,WUHU21623XXSP,2013-02-11 09:36:00,
2013-02-11 01:41:00,38.0,30.8,30.07,ENE,67,0.0,5.5,75,0.00,,,0.00,WUHU21623XXSP,2013-02-11 09:41:00,
2013-02-11 01:46:00,38.0,30.8,30.07,ENE,67,0.0,5.5,75,0.00,,,0.00,WUHU21623XXSP,2013-02-11 09:46:00,
2013-02-11 01:51:00,38.4,31.2,30.07,ENE,67,0.0,0.0,75,0.00,,,0.00,WUHU21623XXSP,2013-02-11 09:51:00,
2013-02-11 01:56:00,38.2,30.7,30.08,ENE,67,0.0,0.0,74,0.00,,,0.00,WUHU21623XXSP,2013-02-11 09:56:00,
2013-02-11 02:01:00,38.2,30.7,30.07,ENE,67,0.0,0.0,74,0.00,,,0.00,WUHU21623XXSP,2013-02-11 10:01:00,
2013-02-11 02:06:00,38.0,30.5,30.07,ENE,67,0.0,0.0,74,0.00,,,0.00,WUHU21623XXSP,2013-02-11 10:06:00,
2013-02-11 02:11:00,37.8,30.3,30.07,ENE,67,0.0,0.0,74,0.00,,,0.00,WUHU21623XXSP,2013-02-11 10:11:00,
2013-02-11 02:16:00,37.8,30.3,30.07,ENE,67,0.0,0.0,74,0.00,,,0.00,WUHU21623XXSP,2013-02-11 10:16:00,
2013-02-11 02:21:00,37.5,30.0,30.07,ENE,67,0.0,0.0,74,0.00,,,0.00,WUHU21623XXSP,2013-02-11 10:21:00,
2013-02-11 02:26:00,37.8,30.3,30.08,ENE,67,0.0,0.0,74,0.00,,,0.00,WUHU21623XXSP,2013-02-11 10:26:00,
2013-02-11 02:31:00,37.5,30.0,30.08,WNW,292,0.0,0.0,74,0.00,,,0.00,WUHU21623XXSP,2013-02-11 10:31:00,
2013-02-11 02:36:00,37.3,29.8,30.08,WNW,292,0.0,0.0,74,0.00,,,0.00,WUHU21623XXSP,2013-02-11 10:36:00,
2013-02-11 02:41:00,36.9,29.8,30.08,ENE,67,0.0,0.0,75,0.00,,,0.00,WUHU21623XXSP,2013-02-11 10:41:00,
2013-02-11 02:46:00,36.9,29.8,30.08,ENE,67,0.0,0.0,75,0.00,,,0.00,WUHU21623XXSP,2013-02-11 10:46:00,
2013-02-11 02:51:00,37.1,30.0,30.08,ENE,67,0.0,0.0,75,0.00,,,0.00,WUHU21623XXSP,2013-02-11 10:51:00,
2013-02-11 02:56:00,37.1,30.0,30.07,East,90,2.3,2.3,75,0.00,,,0.00,WUHU21623XXSP,2013-02-11 10:56:00,
2013-02-11 03:01:00,36.9,29.8,30.07,ENE,67,0.0,3.3,75,0.00,,,0.00,WUHU21623XXSP,2013-02-11 11:01:00,
2013-02-11 03:10:00,36.9,29.8,30.07,ENE,67,0.0,0.0,75,0.00,,,0.00,WUHU21623XXSP,2013-02-11 11:10:00,
2013-02-11 03:15:00,36.2,29.4,30.08,ENE,67,0.0,0.0,76,0.00,,,0.00,WUHU21623XXSP,2013-02-11 11:15:00,
2013-02-11 03:20:00,36.0,29.2,30.08,SSW,202,0.0,0.0,76,0.00,,,0.00,WUHU21623XXSP,2013-02-11 11:20:00,
2013-02-11 03:25:00,36.0,29.5,30.07,East,90,0.0,0.0,77,0.00,,,0.00,WUHU21623XXSP,2013-02-11 11:25:00,
2013-02-11 03:30:00,36.0,29.5,30.08,East,90,0.0,0.0,77,0.00,,,0.00,WUHU21623XXSP,2013-02-11 11:30:00,
2013-02-11 03:35:00,36.0,29.5,30.08,WNW,292,0.0,0.0,77,0.00,,,0.00,WUHU21623XXSP,2013-02-11 11:35:00,
2013-02-11 03:40:00,35.7,29.2,30.07,WNW,292,0.0,0.0,77,0.00,,,0.00,WUHU21623XXSP,2013-02-11 11:40:00,
2013-02-11 03:45:00,35.3,29.2,30.07,WNW,292,0.0,0.0,78,0.00,,,0.00,WUHU21623XXSP,2013-02-11 11:45:00,
2013-02-11 03:50:00,35.3,29.2,30.08,WNW,292,0.0,0.0,78,0.00,,,0.00,WUHU21623XXSP,2013-02-11 11:50:00,
2013-02-11 03:55:00,35.3,29.2,30.08,WNW,292,0.0,0.0,78,0.00,,,0.00,WUHU21623XXSP,2013-02-11 11:55:00,
2013-02-11 04:00:00,35.1,29.0,30.08,WNW,292,0.0,0.0,78,0.00,,,0.00,WUHU21623XXSP,2013-02-11 12:00:00,
2013-02-11 04:05:00,34.8,29.0,30.08,NW,315,0.0,0.0,79,0.00,,,0.00,WUHU21623XXSP,2013-02-11 12:05:00,
2013-02-11 04:10:00,34.8,29.0,30.08,NW,315,0.0,0.0,79,0.00,,,0.00,WUHU21623XXSP,2013-02-11 12:10:00,
2013-02-11 04:15:00,35.0,29.2,30.08,NW,315,0.0,0.0,79,0.00,,,0.00,WUHU21623XXSP,2013-02-11 12:15:00,
2013-02-11 04:20:00,34.8,29.0,30.08,NW,315,0.0,0.0,79,0.00,,,0.00,WUHU21623XXSP,2013-02-11 12:20:00,
2013-02-11 04:25:00,34.8,29.0,30.08,North,0,0.0,0.0,79,0.00,,,0.00,WUHU21623XXSP,2013-02-11 12:25:00,
2013-02-11 04:30:00,34.2,28.7,30.08,NE,45,0.0,0.0,80,0.00,,,0.00,WUHU21623XXSP,2013-02-11 12:30:00,
2013-02-11 04:39:00,34.8,29.3,30.08,ENE,67,0.0,0.0,80,0.00,,,0.00,WUHU21623XXSP,2013-02-11 12:39:00,
2013-02-11 04:44:00,34.4,28.9,30.08,ENE,67,0.0,0.0,80,0.00,,,0.00,WUHU21623XXSP,2013-02-11 12:44:00,
2013-02-11 04:49:00,34.4,29.2,30.08,ENE,67,0.0,0.0,81,0.00,,,0.00,WUHU21623XXSP,2013-02-11 12:49:00,
2013-02-11 04:54:00,34.4,28.9,30.10,NW,315,0.0,3.3,80,0.00,,,0.00,WUHU21623XXSP,2013-02-11 12:54:00,
2013-02-11 04:59:00,34.6,29.1,30.10,NW,315,0.0,3.3,80,0.00,,,0.00,WUHU21623XXSP,2013-02-11 12:59:00,
2013-02-11 05:04:00,34.4,28.9,30.10,NE,45,0.0,0.0,80,0.00,,,0.00,WUHU21623XXSP,2013-02-11 13:04:00,
2013-02-11 05:09:00,34.2,28.7,30.10,NE,45,0.0,0.0,80,0.00,,,0.00,WUHU21623XXSP,2013-02-11 13:09:00,
2013-02-11 05:14:00,34.1,28.6,30.10,NE,45,0.0,0.0,80,0.00,,,0.00,WUHU21623XXSP,2013-02-11 13:14:00,
2013-02-11 05:19:00,33.9,28.4,30.10,NE,45,0.0,0.0,80,0.00,,,0.00,WUHU21623XXSP,2013-02-11 13:19:00,
2013-02-11 05:24:00,33.5,28.3,30.10,ENE,67,0.0,0.0,81,0.00,,,0.00,WUHU21623XXSP,2013-02-11 13:24:00,
2013-02-11 05:29:00,33.7,28.5,30.10,NE,45,0.0,0.0,81,0.00,,,0.00,WUHU21623XXSP,2013-02-11 13:29:00,
2013-02-11 05:34:00,33.9,28.7,30.10,ENE,67,0.0,0.0,81,0.00,,,0.00,WUHU21623XXSP,2013-02-11 13:34:00,
2013-02-11 05:39:00,33.5,28.6,30.10,ENE,67,0.0,0.0,82,0.00,,,0.00,WUHU21623XXSP,2013-02-11 13:39:00,
2013-02-11 05:44:00,33.5,28.6,30.10,ENE,67,0.0,0.0,82,0.00,,,0.00,WUHU21623XXSP,2013-02-11 13:44:00,
2013-02-11 05:49:00,33.5,28.3,30.11,NE,45,0.0,0.0,81,0.00,,,0.00,WUHU21623XXSP,2013-02-11 13:49:00,
2013-02-11 05:54:00,33.3,28.4,30.11,NE,45,0.0,0.0,82,0.00,,,0.00,WUHU21623XXSP,2013-02-11 13:54:00,
2013-02-11 05:59:00,33.2,28.3,30.11,NE,45,0.0,0.0,82,0.00,,,0.00,WUHU21623XXSP,2013-02-11 13:59:00,
2013-02-11 06:04:00,33.3,28.4,30.11,NE,45,0.0,0.0,82,0.00,,,0.00,WUHU21623XXSP,2013-02-11 14:04:00,
2013-02-11 06:09:00,33.3,28.4,30.11,ENE,67,0.0,4.0,82,0.00,,,0.00,WUHU21623XXSP,2013-02-11 14:09:00,
2013-02-11 06:14:00,33.2,28.3,30.11,East,90,0.0,4.0,82,0.00,,,0.00,WUHU21623XXSP,2013-02-11 14:14:00,
2013-02-11 06:19:00,33.3,28.4,30.12,NW,315,0.0,2.8,82,0.00,,,0.00,WUHU21623XXSP,2013-02-11 14:19:00,
2013-02-11 06:24:00,33.5,28.6,30.12,NW,315,0.0,0.0,82,0.00,,,0.00,WUHU21623XXSP,2013-02-11 14:24:00,
2013-02-11 06:29:00,33.3,28.4,30.12,NW,315,0.0,0.0,82,0.00,,,0.00,WUHU21623XXSP,2013-02-11 14:29:00,
2013-02-11 06:34:00,33.3,28.1,30.12,NW,315,0.0,0.0,81,0.00,,,0.00,WUHU21623XXSP,2013-02-11 14:34:00,
2013-02-11 06:39:00,33.3,28.1,30.12,ENE,67,0.0,0.0,81,0.00,,,0.00,WUHU21623XXSP,2013-02-11 14:39:00,
2013-02-11 06:44:00,33.5,28.6,30.12,ENE,67,0.0,0.0,82,0.00,,,0.00,WUHU21623XXSP,2013-02-11 14:44:00,
2013-02-11 06:49:00,33.5,28.3,30.13,ENE,67,0.0,0.0,81,0.00,,,0.00,WUHU21623XXSP,2013-02-11 14:49:00,
2013-02-11 06:54:00,33.5,28.3,30.12,ENE,67,0.0,0.0,81,0.00,,,0.00,WUHU21623XXSP,2013-02-11 14:54:00,
2013-02-11 06:59:00,33.3,28.1,30.13,ENE,67,0.0,0.0,81,0.00,,,0.00,WUHU21623XXSP,2013-02-11 14:59:00,
2013-02-11 07:04:00,33.2,28.0,30.13,ENE,67,0.0,0.0,81,0.00,,,0.00,WUHU21623XXSP,2013-02-11 15:04:00,
2013-02-11 07:09:00,33.0,27.8,30.13,ENE,67,0.0,0.0,81,0.00,,,0.00,WUHU21623XXSP,2013-02-11 15:09:00,
2013-02-11 07:14:00,33.2,28.3,30.13,ENE,67,0.0,0.0,82,0.00,,,0.00,WUHU21623XXSP,2013-02-11 15:14:00,
2013-02-11 07:19:00,33.2,28.3,30.13,ENE,67,0.0,0.0,82,0.00,,,0.00,WUHU21623XXSP,2013-02-11 15:19:00,
2013-02-11 07:24:00,33.2,28.3,30.13,ENE,67,0.0,0.0,82,0.00,,,0.00,WUHU21623XXSP,2013-02-11 15:24:00,
2013-02-11 07:29:00,33.3,28.4,30.13,ENE,67,0.0,0.0,82,0.00,,,0.00,WUHU21623XXSP,2013-02-11 15:29:00,
2013-02-11 07:34:00,33.2,28.3,30.13,ENE,67,0.0,0.0,82,0.00,,,0.00,WUHU21623XXSP,2013-02-11 15:34:00,
2013-02-11 07:39:00,33.3,28.4,30.14,ENE,67,0.0,4.0,82,0.00,,,0.00,WUHU21623XXSP,2013-02-11 15:39:00,
2013-02-11 07:44:00,33.9,29.0,30.13,ENE,67,0.0,4.0,82,0.00,,,0.00,WUHU21623XXSP,2013-02-11 15:44:00,
2013-02-11 07:49:00,34.2,29.3,30.14,ENE,67,0.0,0.0,82,0.00,,,0.00,WUHU21623XXSP,2013-02-11 15:49:00,
2013-02-11 07:54:00,34.4,29.5,30.14,ENE,67,0.0,0.0,82,0.00,,,0.00,WUHU21623XXSP,2013-02-11 15:54:00,
2013-02-11 08:00:00,35.0,29.8,30.14,ENE,67,0.0,0.0,81,0.00,,,0.00,WUHU21623XXSP,2013-02-11 16:00:00,
2013-02-11 08:05:00,35.3,30.1,30.14,ENE,67,0.0,0.0,81,0.00,,,0.00,WUHU21623XXSP,2013-02-11 16:05:00,
2013-02-11 08:10:00,35.7,30.1,30.15,East,90,0.0,0.0,80,0.00,,,0.00,WUHU21623XXSP,2013-02-11 16:10:00,
2013-02-11 08:15:00,36.2,30.6,30.15,ENE,67,5.5,5.5,80,0.00,,,0.00,WUHU21623XXSP,2013-02-11 16:15:00,
2013-02-11 08:20:00,36.9,31.0,30.15,ENE,67,0.0,5.5,79,0.00,,,0.00,WUHU21623XXSP,2013-02-11 16:20:00,
2013-02-11 08:25:00,37.5,31.3,30.16,ENE,67,0.0,5.5,78,0.00,,,0.00,WUHU21623XXSP,2013-02-11 16:25:00,
2013-02-11 08:30:00,38.0,31.8,30.16,ENE,67,0.0,0.0,78,0.00,,,0.00,WUHU21623XXSP,2013-02-11 16:30:00,
2013-02-11 08:35:00,38.4,32.2,30.15,ENE,67,0.0,0.0,78,0.00,,,0.00,WUHU21623XXSP,2013-02-11 16:35:00,
2013-02-11 08:40:00,38.7,32.1,30.16,East,90,0.0,0.0,77,0.00,,,0.00,WUHU21623XXSP,2013-02-11 16:40:00,
2013-02-11 08:45:00,39.3,32.7,30.17,SSE,157,0.0,0.0,77,0.00,,,0.00,WUHU21623XXSP,2013-02-11 16:45:00,
2013-02-11 08:50:00,39.8,33.5,30.16,SSW,202,0.0,0.0,78,0.00,,,0.00,WUHU21623XXSP,2013-02-11 16:50:00,
2013-02-11 08:55:00,40.0,33.7,30.17,SSW,202,0.0,0.0,78,0.00,,,0.00,WUHU21623XXSP,2013-02-11 16:55:00,
2013-02-11 09:00:00,40.4,33.8,30.17,SW,225,0.0,0.0,77,0.00,,,0.00,WUHU21623XXSP,2013-02-11 17:00:00,
2013-02-11 09:05:00,41.4,34.1,30.17,SSW,202,0.0,0.0,75,0.00,,,0.00,WUHU21623XXSP,2013-02-11 17:05:00,
2013-02-11 09:10:00,41.6,34.0,30.17,SW,225,0.0,0.0,74,0.00,,,0.00,WUHU21623XXSP,2013-02-11 17:10:00,
2013-02-11 09:15:00,42.0,34.0,30.18,SW,225,0.0,4.5,73,0.00,,,0.00,WUHU21623XXSP,2013-02-11 17:15:00,
2013-02-11 09:20:00,42.3,34.3,30.18,WSW,247,0.0,4.5,73,0.00,,,0.00,WUHU21623XXSP,2013-02-11 17:20:00,
2013-02-11 09:25:00,42.7,34.4,30.18,SSW,202,0.0,13.5,72,0.00,,,0.00,WUHU21623XXSP,2013-02-11 17:25:00,
2013-02-11 09:30:00,43.4,34.7,30.18,SW,225,0.0,13.5,71,0.00,,,0.00,WUHU21623XXSP,2013-02-11 17:30:00,
2013-02-11 09:35:00,43.2,34.2,30.19,SSW,202,1.8,4.0,70,0.00,,,0.00,WUHU21623XXSP,2013-02-11 17:35:00,
2013-02-11 09:40:00,43.6,34.5,30.19,South,180,0.0,5.0,70,0.00,,,0.00,WUHU21623XXSP,2013-02-11 17:40:00,
2013-02-11 09:45:00,44.0,34.9,30.19,SSW,202,0.0,5.5,70,0.00,,,0.00,WUHU21623XXSP,2013-02-11 17:45:00,
2013-02-11 09:50:00,44.5,35.1,30.20,SSE,157,0.0,5.5,69,0.00,,,0.00,WUHU21623XXSP,2013-02-11 17:50:00,
2013-02-11 09:55:00,45.2,35.4,30.19,SW,225,0.0,0.0,68,0.00,,,0.00,WUHU21623XXSP,2013-02-11 17:55:00,
2013-02-11 10:00:00,45.6,35.4,30.20,SSW,202,0.0,3.3,67,0.00,,,0.00,WUHU21623XXSP,2013-02-11 18:00:00,
2013-02-11 10:05:00,46.1,35.1,30.20,SSE,157,2.8,5.5,65,0.00,,,0.00,WUHU21623XXSP,2013-02-11 18:05:00,
2013-02-11 10:10:00,46.5,35.1,30.20,SSE,157,0.0,5.5,64,0.00,,,0.00,WUHU21623XXSP,2013-02-11 18:10:00,
2013-02-11 10:15:00,47.2,35.7,30.20,SSE,157,2.8,3.3,64,0.00,,,0.00,WUHU21623XXSP,2013-02-11 18:15:00,
2013-02-11 10:20:00,47.6,35.7,30.20,SSE,157,0.0,3.3,63,0.00,,,0.00,WUHU21623XXSP,2013-02-11 18:20:00,
2013-02-11 10:25:00,48.1,36.2,30.20,South,180,0.0,5.5,63,0.00,,,0.00,WUHU21623XXSP,2013-02-11 18:25:00,
2013-02-11 10:30:00,48.6,36.3,30.20,SE,135,0.0,5.5,62,0.00,,,0.00,WUHU21623XXSP,2013-02-11 18:30:00,
2013-02-11 10:35:00,48.8,36.0,30.20,SSE,157,0.0,2.8,61,0.00,,,0.00,WUHU21623XXSP,2013-02-11 18:35:00,
2013-02-11 10:40:00,49.7,36.5,30.20,SSE,157,0.0,3.3,60,0.00,,,0.00,WUHU21623XXSP,2013-02-11 18:40:00,
2013-02-11 10:45:00,49.7,36.5,30.20,SSW,202,0.0,5.5,60,0.00,,,0.00,WUHU21623XXSP,2013-02-11 18:45:00,
2013-02-11 10:50:00,50.1,36.4,30.20,SSW,202,0.0,5.5,59,0.00,,,0.00,WUHU21623XXSP,2013-02-11 18:50:00,
2013-02-11 10:55:00,50.4,36.7,30.20,SW,225,0.0,6.3,59,0.00,,,0.00,WUHU21623XXSP,2013-02-11 18:55:00,
2013-02-11 11:00:00,51.0,37.3,30.20,South,180,0.0,6.3,59,0.00,,,0.00,WUHU21623XXSP,2013-02-11 19:00:00,
2013-02-11 11:05:00,51.7,37.5,30.20,South,180,5.5,5.5,58,0.00,,,0.00,WUHU21623XXSP,2013-02-11 19:05:00,
2013-02-11 11:10:00,52.1,37.4,30.20,SW,225,4.0,5.5,57,0.00,,,0.00,WUHU21623XXSP,2013-02-11 19:10:00,
2013-02-11 11:15:00,52.8,38.5,30.20,SE,135,0.0,9.5,58,0.00,,,0.00,WUHU21623XXSP,2013-02-11 19:15:00,
2013-02-11 11:20:00,53.0,37.8,30.19,SSW,202,0.0,9.5,56,0.00,,,0.00,WUHU21623XXSP,2013-02-11 19:20:00,
2013-02-11 11:25:00,53.3,37.6,30.19,SE,135,0.0,3.3,55,0.00,,,0.00,WUHU21623XXSP,2013-02-11 19:25:00,
2013-02-11 11:30:00,53.7,37.5,30.19,SE,135,0.0,3.3,54,0.00,,,0.00,WUHU21623XXSP,2013-02-11 19:30:00,
2013-02-11 11:35:00,54.0,37.3,30.19,South,180,0.0,7.3,53,0.00,,,0.00,WUHU21623XXSP,2013-02-11 19:35:00,
2013-02-11 11:40:00,54.2,38.0,30.19,SSW,202,0.0,7.3,54,0.00,,,0.00,WUHU21623XXSP,2013-02-11 19:40:00,
2013-02-11 11:45:00,54.8,38.0,30.19,SE,135,0.0,4.5,53,0.00,,,0.00,WUHU21623XXSP,2013-02-11 19:45:00,
2013-02-11 11:50:00,55.3,38.0,30.18,SSE,157,0.0,4.0,52,0.00,,,0.00,WUHU21623XXSP,2013-02-11 19:50:00,
2013-02-11 11:55:00,55.7,37.9,30.19,WSW,247,0.0,6.8,51,0.00,,,0.00,WUHU21623XXSP,2013-02-11 19:55:00,
2013-02-11 12:00:00,56.0,38.1,30.18,South,180,0.0,9.5,51,0.00,,,0.00,WUHU21623XXSP,2013-02-11 20:00:00,
2013-02-11 12:05:00,56.4,38.5,30.18,SSW,202,0.0,9.5,51,0.00,,,0.00,WUHU21623XXSP,2013-02-11 20:05:00,
2013-02-11 12:10:00,56.7,37.7,30.17,NE,45,3.3,6.3,49,0.00,,,0.00,WUHU21623XXSP,2013-02-11 20:10:00,
2013-02-11 12:15:00,57.3,37.7,30.17,ENE,67,0.0,11.3,48,0.00,,,0.00,WUHU21623XXSP,2013-02-11 20:15:00,
2013-02-11 12:20:00,58.0,37.8,30.17,West,270,0.0,11.3,47,0.00,,,0.00,WUHU21623XXSP,2013-02-11 20:20:00,
2013-02-11 12:25:00,58.2,37.4,30.16,SSW,202,3.3,9.0,46,0.00,,,0.00,WUHU21623XXSP,2013-02-11 20:25:00,
2013-02-11 12:30:00,58.5,36.6,30.17,SSW,202,2.3,5.5,44,0.00,,,0.00,WUHU21623XXSP,2013-02-11 20:30:00,
2013-02-11 12:35:00,58.0,35.5,30.16,ESE,112,0.0,5.5,43,0.00,,,0.00,WUHU21623XXSP,2013-02-11 20:35:00,
2013-02-11 12:40:00,58.2,35.7,30.16,ENE,67,9.5,14.5,43,0.00,,,0.00,WUHU21623XXSP,2013-02-11 20:40:00,
2013-02-11 12:45:00,58.5,35.3,30.16,SE,135,0.0,14.5,42,0.00,,,0.00,WUHU21623XXSP,2013-02-11 20:45:00,
2013-02-11 12:50:00,58.7,34.9,30.16,SW,225,0.0,9.5,41,0.00,,,0.00,WUHU21623XXSP,2013-02-11 20:50:00,
2013-02-11 12:55:00,59.1,35.9,30.15,ENE,67,0.0,7.3,42,0.00,,,0.00,WUHU21623XXSP,2013-02-11 20:55:00,
2013-02-11 13:00:00,58.9,36.3,30.15,SW,225,0.0,7.3,43,0.00,,,0.00,WUHU21623XXSP,2013-02-11 21:00:00,
2013-02-11 13:05:00,59.1,36.5,30.16,South,180,0.0,6.3,43,0.00,,,0.00,WUHU21623XXSP,2013-02-11 21:05:00,
2013-02-11 13:10:00,58.7,35.5,30.15,South,180,6.3,9.5,42,0.00,,,0.00,WUHU21623XXSP,2013-02-11 21:10:00,
2013-02-11 13:15:00,58.4,35.3,30.15,South,180,5.5,9.5,42,0.00,,,0.00,WUHU21623XXSP,2013-02-11 21:15:00,
2013-02-11 13:20:00,57.8,35.3,30.15,East,90,7.3,7.8,43,0.00,,,0.00,WUHU21623XXSP,2013-02-11 21:20:00,
2013-02-11 13:25:00,58.9,36.9,30.15,SSW,202,0.0,7.8,44,0.00,,,0.00,WUHU21623XXSP,2013-02-11 21:25:00,
2013-02-11 13:30:00,58.9,36.9,30.15,South,180,0.0,7.8,44,0.00,,,0.00,WUHU21623XXSP,2013-02-11 21:30:00,
2013-02-11 13:35:00,59.1,36.5,30.14,South,180,0.0,5.0,43,0.00,,,0.00,WUHU21623XXSP,2013-02-11 21:35:00,
2013-02-11 13:40:00,59.4,36.8,30.14,SE,135,0.0,4.5,43,0.00,,,0.00,WUHU21623XXSP,2013-02-11 21:40:00,
2013-02-11 13:45:00,59.4,36.2,30.14,East,90,0.0,5.5,42,0.00,,,0.00,WUHU21623XXSP,2013-02-11 21:45:00,
2013-02-11 13:50:00,59.4,36.8,30.14,SSW,202,1.8,6.3,43,0.00,,,0.00,WUHU21623XXSP,2013-02-11 21:50:00,
2013-02-11 13:55:00,58.9,35.7,30.14,SW,225,0.0,11.3,42,0.00,,,0.00,WUHU21623XXSP,2013-02-11 21:55:00,
2013-02-11 14:00:00,59.1,35.3,30.14,ESE,112,0.0,11.3,41,0.00,,,0.00,WUHU21623XXSP,2013-02-11 22:00:00,
2013-02-11 14:05:00,59.4,35.5,30.13,SSE,157,2.3,2.8,41,0.00,,,0.00,WUHU21623XXSP,2013-02-11 22:05:00,
2013-02-11 14:10:00,58.9,35.7,30.13,SSE,157,0.0,6.3,42,0.00,,,0.00,WUHU21623XXSP,2013-02-11 22:10:00,
2013-02-11 14:15:00,59.4,36.2,30.13,SW,225,0.0,7.8,42,0.00,,,0.00,WUHU21623XXSP,2013-02-11 22:15:00,
2013-02-11 14:20:00,59.3,35.4,30.14,SSW,202,0.0,7.8,41,0.00,,,0.00,WUHU21623XXSP,2013-02-11 22:20:00,
2013-02-11 14:25:00,59.1,35.9,30.14,SSW,202,0.0,7.3,42,0.00,,,0.00,WUHU21623XXSP,2013-02-11 22:25:00,
2013-02-11 14:30:00,59.1,35.3,30.14,SSE,157,0.0,7.8,41,0.00,,,0.00,WUHU21623XXSP,2013-02-11 22:30:00,
2013-02-11 14:35:00,58.5,35.3,30.14,South,180,0.0,7.8,42,0.00,,,0.00,WUHU21623XXSP,2013-02-11 22:35:00,
2013-02-11 14:40:00,58.5,35.3,30.14,SSW,202,4.0,7.3,42,0.00,,,0.00,WUHU21623XXSP,2013-02-11 22:40:00,
2013-02-11 14:45:00,58.5,36.0,30.14,South,180,4.5,4.5,43,0.00,,,0.00,WUHU21623XXSP,2013-02-11 22:45:00,
2013-02-11 14:50:00,58.5,35.3,30.14,SSE,157,0.0,6.8,42,0.00,,,0.00,WUHU21623XXSP,2013-02-11 22:50:00,
2013-02-11 14:55:00,58.4,35.3,30.14,SSE,157,4.5,6.8,42,0.00,,,0.00,WUHU21623XXSP,2013-02-11 22:55:00,
2013-02-11 15:00:00,58.0,34.9,30.14,SSW,202,0.0,6.8,42,0.00,,,0.00,WUHU21623XXSP,2013-02-11 23:00:00,
2013-02-11 15:05:00,58.2,35.7,30.14,East,90,5.5,5.5,43,0.00,,,0.00,WUHU21623XXSP,2013-02-11 23:05:00,
2013-02-11 15:10:00,57.8,34.7,30.14,ESE,112,2.8,5.5,42,0.00,,,0.00,WUHU21623XXSP,2013-02-11 23:10:00,
2013-02-11 15:15:00,57.8,34.7,30.14,SSE,157,0.0,5.5,42,0.00,,,0.00,WUHU21623XXSP,2013-02-11 23:15:00,
2013-02-11 15:20:00,57.8,34.7,30.14,SE,135,0.0,6.3,42,0.00,,,0.00,WUHU21623XXSP,2013-02-11 23:20:00,
2013-02-11 15:25:00,57.8,34.7,30.14,SE,135,0.0,6.3,42,0.00,,,0.00,WUHU21623XXSP,2013-02-11 23:25:00,
2013-02-11 15:30:00,57.8,34.7,30.14,South,180,0.0,4.5,42,0.00,,,0.00,WUHU21623XXSP,2013-02-11 23:30:00,
2013-02-11 15:35:00,57.6,34.5,30.13,SSE,157,0.0,5.0,42,0.00,,,0.00,WUHU21623XXSP,2013-02-11 23:35:00,
2013-02-11 15:40:00,57.6,33.9,30.13,South,180,4.0,9.0,41,0.00,,,0.00,WUHU21623XXSP,2013-02-11 23:40:00,
2013-02-11 15:45:00,57.3,34.3,30.13,SSE,157,0.0,9.0,42,0.00,,,0.00,WUHU21623XXSP,2013-02-11 23:45:00,
2013-02-11 15:50:00,57.5,33.8,30.14,ESE,112,0.0,4.0,41,0.00,,,0.00,WUHU21623XXSP,2013-02-11 23:50:00,
2013-02-11 15:55:00,57.6,33.9,30.14,SE,135,0.0,3.3,41,0.00,,,0.00,WUHU21623XXSP,2013-02-11 23:55:00,
2013-02-11 16:01:00,57.6,34.5,30.14,SSW,202,3.3,3.3,42,0.00,,,0.00,WUHU21623XXSP,2013-02-12 00:01:00,
2013-02-11 16:06:00,57.5,34.4,30.14,South,180,0.0,5.5,42,0.00,,,0.00,WUHU21623XXSP,2013-02-12 00:06:00,
2013-02-11 16:11:00,57.3,34.3,30.14,South,180,0.0,5.5,42,0.00,,,0.00,WUHU21623XXSP,2013-02-12 00:11:00,
2013-02-11 16:16:00,57.1,34.1,30.14,SSE,157,0.0,3.3,42,0.00,,,0.00,WUHU21623XXSP,2013-02-12 00:16:00,
2013-02-11 16:21:00,57.1,34.7,30.14,ENE,67,0.0,0.0,43,0.00,,,0.00,WUHU21623XXSP,2013-02-12 00:21:00,
2013-02-11 16:26:00,57.1,34.7,30.14,ENE,67,0.0,5.0,43,0.00,,,0.00,WUHU21623XXSP,2013-02-12 00:26:00,
2013-02-11 16:31:00,56.7,34.3,30.14,ENE,67,0.0,7.8,43,0.00,,,0.00,WUHU21623XXSP,2013-02-12 00:31:00,
2013-02-11 16:36:00,56.7,34.3,30.14,SE,135,0.0,7.8,43,0.00,,,0.00,WUHU21623XXSP,2013-02-12 00:36:00,
2013-02-11 16:41:00,56.4,34.0,30.14,SSE,157,0.0,6.3,43,0.00,,,0.00,WUHU21623XXSP,2013-02-12 00:41:00,
2013-02-11 16:46:00,56.4,34.6,30.14,SSE,157,0.0,6.3,44,0.00,,,0.00,WUHU21623XXSP,2013-02-12 00:46:00,
2013-02-11 16:51:00,56.2,35.0,30.14,ENE,67,0.0,5.5,45,0.00,,,0.00,WUHU21623XXSP,2013-02-12 00:51:00,
2013-02-11 16:56:00,56.0,34.9,30.14,East,90,0.0,0.0,45,0.00,,,0.00,WUHU21623XXSP,2013-02-12 00:56:00,
2013-02-11 17:01:00,55.8,34.7,30.14,South,180,0.0,0.0,45,0.00,,,0.00,WUHU21623XXSP,2013-02-12 01:01:00,
2013-02-11 17:06:00,55.5,35.0,30.14,SSE,157,0.0,3.3,46,0.00,,,0.00,WUHU21623XXSP,2013-02-12 01:06:00,
2013-02-11 17:11:00,55.3,35.3,30.14,South,180,0.0,3.3,47,0.00,,,0.00,WUHU21623XXSP,2013-02-12 01:11:00,
2013-02-11 17:16:00,55.1,35.2,30.14,SSE,157,0.0,2.8,47,0.00,,,0.00,WUHU21623XXSP,2013-02-12 01:16:00,
2013-02-11 17:21:00,54.9,35.0,30.15,SSE,157,0.0,0.0,47,0.00,,,0.00,WUHU21623XXSP,2013-02-12 01:21:00,
2013-02-11 17:26:00,54.8,34.9,30.15,SSE,157,0.0,0.0,47,0.00,,,0.00,WUHU21623XXSP,2013-02-12 01:26:00,
2013-02-11 17:31:00,54.4,35.1,30.15,SSE,157,0.0,0.0,48,0.00,,,0.00,WUHU21623XXSP,2013-02-12 01:31:00,
2013-02-11 17:36:00,54.2,34.9,30.15,SSE,157,0.0,0.0,48,0.00,,,0.00,WUHU21623XXSP,2013-02-12 01:36:00,
2013-02-11 17:41:00,53.9,35.1,30.15,SSE,157,0.0,0.0,49,0.00,,,0.00,WUHU21623XXSP,2013-02-12 01:41:00,
2013-02-11 17:46:00,53.3,35.1,30.15,SSE,157,0.0,0.0,50,0.00,,,0.00,WUHU21623XXSP,2013-02-12 01:46:00,
2013-02-11 17:51:00,53.1,34.9,30.15,SSE,157,0.0,0.0,50,0.00,,,0.00,WUHU21623XXSP,2013-02-12 01:51:00,
2013-02-11 17:56:00,52.8,35.2,30.16,SSE,157,0.0,0.0,51,0.00,,,0.00,WUHU21623XXSP,2013-02-12 01:56:00,
2013-02-11 18:01:00,52.2,35.1,30.15,SSE,157,0.0,0.0,52,0.00,,,0.00,WUHU21623XXSP,2013-02-12 02:01:00,
2013-02-11 18:06:00,51.9,35.3,30.16,SSE,157,0.0,0.0,53,0.00,,,0.00,WUHU21623XXSP,2013-02-12 02:06:00,
2013-02-11 18:11:00,51.5,35.4,30.16,SSE,157,0.0,0.0,54,0.00,,,0.00,WUHU21623XXSP,2013-02-12 02:11:00,
2013-02-11 18:16:00,51.3,35.2,30.17,SSE,157,0.0,0.0,54,0.00,,,0.00,WUHU21623XXSP,2013-02-12 02:16:00,
2013-02-11 18:21:00,51.0,35.4,30.17,SSE,157,0.0,0.0,55,0.00,,,0.00,WUHU21623XXSP,2013-02-12 02:21:00,
2013-02-11 18:26:00,50.6,35.1,30.17,SSE,157,0.0,0.0,55,0.00,,,0.00,WUHU21623XXSP,2013-02-12 02:26:00,
2013-02-11 18:31:00,50.1,35.1,30.16,SSE,157,0.0,0.0,56,0.00,,,0.00,WUHU21623XXSP,2013-02-12 02:31:00,
2013-02-11 18:36:00,49.7,35.1,30.17,SSE,157,0.0,0.0,57,0.00,,,0.00,WUHU21623XXSP,2013-02-12 02:36:00,
2013-02-11 18:41:00,49.5,35.4,30.17,SSE,157,0.0,0.0,58,0.00,,,0.00,WUHU21623XXSP,2013-02-12 02:41:00,
2013-02-11 18:46:00,49.2,35.1,30.17,SSE,157,0.0,0.0,58,0.00,,,0.00,WUHU21623XXSP,2013-02-12 02:46:00,
2013-02-11 18:51:00,49.2,35.1,30.17,SSE,157,0.0,0.0,58,0.00,,,0.00,WUHU21623XXSP,2013-02-12 02:51:00,
2013-02-11 18:56:00,48.8,35.2,30.17,SSE,157,0.0,0.0,59,0.00,,,0.00,WUHU21623XXSP,2013-02-12 02:56:00,
2013-02-11 19:01:00,48.8,35.2,30.18,SSE,157,0.0,0.0,59,0.00,,,0.00,WUHU21623XXSP,2013-02-12 03:01:00,
2013-02-11 19:06:00,48.3,34.7,30.18,SSE,157,0.0,0.0,59,0.00,,,0.00,WUHU21623XXSP,2013-02-12 03:06:00,
2013-02-11 19:11:00,48.1,35.0,30.18,SSE,157,0.0,0.0,60,0.00,,,0.00,WUHU21623XXSP,2013-02-12 03:11:00,
2013-02-11 19:16:00,47.9,34.8,30.18,SSE,157,0.0,0.0,60,0.00,,,0.00,WUHU21623XXSP,2013-02-12 03:16:00,
2013-02-11 19:21:00,47.7,34.6,30.18,SSE,157,0.0,0.0,60,0.00,,,0.00,WUHU21623XXSP,2013-02-12 03:21:00,
2013-02-11 19:26:00,47.7,34.6,30.18,SSE,157,0.0,0.0,60,0.00,,,0.00,WUHU21623XXSP,2013-02-12 03:26:00,
2013-02-11 19:31:00,47.6,34.5,30.18,SSE,157,0.0,0.0,60,0.00,,,0.00,WUHU21623XXSP,2013-02-12 03:31:00,
2013-02-11 19:36:00,47.2,34.9,30.19,NE,45,0.0,0.0,62,0.00,,,0.00,WUHU21623XXSP,2013-02-12 03:36:00,
2013-02-11 19:41:00,47.2,34.9,30.18,ENE,67,0.0,0.0,62,0.00,,,0.00,WUHU21623XXSP,2013-02-12 03:41:00,
2013-02-11 19:46:00,47.2,34.9,30.18,ENE,67,0.0,0.0,62,0.00,,,0.00,WUHU21623XXSP,2013-02-12 03:46:00,
2013-02-11 19:51:00,47.0,34.7,30.18,ENE,67,0.0,0.0,62,0.00,,,0.00,WUHU21623XXSP,2013-02-12 03:51:00,
2013-02-11 19:56:00,46.8,35.0,30.18,ENE,67,0.0,0.0,63,0.00,,,0.00,WUHU21623XXSP,2013-02-12 03:56:00,
2013-02-11 20:01:00,46.7,34.9,30.18,ENE,67,0.0,0.0,63,0.00,,,0.00,WUHU21623XXSP,2013-02-12 04:01:00,
2013-02-11 20:06:00,46.7,34.5,30.18,East,90,0.0,0.0,62,0.00,,,0.00,WUHU21623XXSP,2013-02-12 04:06:00,
2013-02-11 20:11:00,46.5,34.7,30.18,ENE,67,0.0,0.0,63,0.00,,,0.00,WUHU21623XXSP,2013-02-12 04:11:00,
2013-02-11 20:16:00,46.5,34.7,30.19,ENE,67,0.0,0.0,63,0.00,,,0.00,WUHU21623XXSP,2013-02-12 04:16:00,
2013-02-11 20:21:00,46.3,34.5,30.19,ENE,67,0.0,0.0,63,0.00,,,0.00,WUHU21623XXSP,2013-02-12 04:21:00,
2013-02-11 20:26:00,46.1,34.3,30.19,ENE,67,0.0,0.0,63,0.00,,,0.00,WUHU21623XXSP,2013-02-12 04:26:00,
2013-02-11 20:31:00,46.1,34.3,30.20,ENE,67,0.0,0.0,63,0.00,,,0.00,WUHU21623XXSP,2013-02-12 04:31:00,
2013-02-11 20:36:00,45.8,34.4,30.20,ENE,67,0.0,0.0,64,0.00,,,0.00,WUHU21623XXSP,2013-02-12 04:36:00,
2013-02-11 20:41:00,45.6,34.6,30.20,ENE,67,0.0,0.0,65,0.00,,,0.00,WUHU21623XXSP,2013-02-12 04:41:00,
2013-02-11 20:46:00,45.2,34.2,30.20,ENE,67,0.0,0.0,65,0.00,,,0.00,WUHU21623XXSP,2013-02-12 04:46:00,
2013-02-11 20:51:00,45.2,34.6,30.20,ENE,67,0.0,0.0,66,0.00,,,0.00,WUHU21623XXSP,2013-02-12 04:51:00,
2013-02-11 20:56:00,45.0,34.4,30.20,ENE,67,0.0,0.0,66,0.00,,,0.00,WUHU21623XXSP,2013-02-12 04:56:00,
2013-02-11 21:00:00,44.9,34.3,30.20,ENE,67,0.0,0.0,66,0.00,,,0.00,WUHU21623XXSP,2013-02-12 05:00:00,
2013-02-11 21:05:00,44.7,34.5,30.20,ENE,67,0.0,0.0,67,0.00,,,0.00,WUHU21623XXSP,2013-02-12 05:05:00,
2013-02-11 21:10:00,44.7,34.1,30.20,ENE,67,0.0,0.0,66,0.00,,,0.00,WUHU21623XXSP,2013-02-12 05:10:00,
2013-02-11 21:15:00,44.7,34.1,30.21,ENE,67,0.0,0.0,66,0.00,,,0.00,WUHU21623XXSP,2013-02-12 05:15:00,
2013-02-11 21:20:00,44.7,34.1,30.21,ENE,67,0.0,0.0,66,0.00,,,0.00,WUHU21623XXSP,2013-02-12 05:20:00,
2013-02-11 21:25:00,44.5,33.9,30.20,ENE,67,0.0,0.0,66,0.00,,,0.00,WUHU21623XXSP,2013-02-12 05:25:00,
2013-02-11 21:30:00,44.3,33.7,30.20,ENE,67,0.0,0.0,66,0.00,,,0.00,WUHU21623XXSP,2013-02-12 05:30:00,
2013-02-11 21:35:00,44.3,34.1,30.21,ENE,67,0.0,0.0,67,0.00,,,0.00,WUHU21623XXSP,2013-02-12 05:35:00,
2013-02-11 21:40:00,44.3,34.1,30.20,ENE,67,0.0,0.0,67,0.00,,,0.00,WUHU21623XXSP,2013-02-12 05:40:00,
2013-02-11 21:45:00,44.1,33.9,30.21,ENE,67,0.0,0.0,67,0.00,,,0.00,WUHU21623XXSP,2013-02-12 05:45:00,
2013-02-11 21:50:00,44.1,33.9,30.21,ENE,67,0.0,0.0,67,0.00,,,0.00,WUHU21623XXSP,2013-02-12 05:50:00,
2013-02-11 21:55:00,44.0,33.8,30.21,ENE,67,0.0,0.0,67,0.00,,,0.00,WUHU21623XXSP,2013-02-12 05:55:00,
2013-02-11 22:00:00,44.1,33.9,30.21,ENE,67,0.0,0.0,67,0.00,,,0.00,WUHU21623XXSP,2013-02-12 06:00:00,
2013-02-11 22:05:00,44.0,33.8,30.21,ENE,67,0.0,0.0,67,0.00,,,0.00,WUHU21623XXSP,2013-02-12 06:05:00,
2013-02-11 22:10:00,44.0,33.8,30.21,ENE,67,0.0,0.0,67,0.00,,,0.00,WUHU21623XXSP,2013-02-12 06:10:00,
2013-02-11 22:15:00,44.0,33.8,30.21,ENE,67,0.0,0.0,67,0.00,,,0.00,WUHU21623XXSP,2013-02-12 06:15:00,
2013-02-11 22:20:00,43.8,33.6,30.21,ENE,67,0.0,0.0,67,0.00,,,0.00,WUHU21623XXSP,2013-02-12 06:20:00,
2013-02-11 22:25:00,43.8,34.0,30.21,ENE,67,0.0,0.0,68,0.00,,,0.00,WUHU21623XXSP,2013-02-12 06:25:00,
2013-02-11 22:30:00,43.8,33.6,30.21,ENE,67,0.0,5.0,67,0.00,,,0.00,WUHU21623XXSP,2013-02-12 06:30:00,
2013-02-11 22:35:00,43.8,34.0,30.21,ENE,67,0.0,5.0,68,0.00,,,0.00,WUHU21623XXSP,2013-02-12 06:35:00,
2013-02-11 22:40:00,43.8,34.0,30.21,ENE,67,4.0,4.0,68,0.00,,,0.00,WUHU21623XXSP,2013-02-12 06:40:00,
2013-02-11 22:45:00,43.8,34.0,30.22,ENE,67,0.0,4.0,68,0.00,,,0.00,WUHU21623XXSP,2013-02-12 06:45:00,
2013-02-11 22:50:00,43.8,34.0,30.22,ENE,67,0.0,0.0,68,0.00,,,0.00,WUHU21623XXSP,2013-02-12 06:50:00,
2013-02-11 22:55:00,43.6,33.8,30.21,ENE,67,0.0,0.0,68,0.00,,,0.00,WUHU21623XXSP,2013-02-12 06:55:00,
2013-02-11 23:00:00,43.6,33.8,30.22,ENE,67,0.0,0.0,68,0.00,,,0.00,WUHU21623XXSP,2013-02-12 07:00:00,
2013-02-11 23:05:00,43.4,34.0,30.22,ENE,67,0.0,0.0,69,0.00,,,0.00,WUHU21623XXSP,2013-02-12 07:05:00,
2013-02-11 23:10:00,43.4,34.0,30.22,ENE,67,0.0,0.0,69,0.00,,,0.00,WUHU21623XXSP,2013-02-12 07:10:00,
2013-02-11 23:15:00,43.2,33.8,30.22,ENE,67,0.0,0.0,69,0.00,,,0.00,WUHU21623XXSP,2013-02-12 07:15:00,
2013-02-11 23:20:00,43.1,33.7,30.22,ENE,67,0.0,0.0,69,0.00,,,0.00,WUHU21623XXSP,2013-02-12 07:20:00,
2013-02-11 23:26:00,42.9,33.5,30.23,ENE,67,0.0,0.0,69,0.00,,,0.00,WUHU21623XXSP,2013-02-12 07:26:00,
2013-02-11 23:31:00,42.7,33.3,30.23,ENE,67,0.0,0.0,69,0.00,,,0.00,WUHU21623XXSP,2013-02-12 07:31:00,
2013-02-11 23:36:00,42.5,33.5,30.23,ENE,67,0.0,0.0,70,0.00,,,0.00,WUHU21623XXSP,2013-02-12 07:36:00,
2013-02-11 23:41:00,42.3,33.3,30.23,ENE,67,0.0,0.0,70,0.00,,,0.00,WUHU21623XXSP,2013-02-12 07:41:00,
2013-02-11 23:46:00,42.3,33.3,30.23,ENE,67,4.5,4.5,70,0.00,,,0.00,WUHU21623XXSP,2013-02-12 07:46:00,
2013-02-11 23:51:00,42.3,33.6,30.23,East,90,0.0,4.5,71,0.00,,,0.00,WUHU21623XXSP,2013-02-12 07:51:00,
2013-02-11 23:56:00,42.2,33.5,30.23,ENE,67,0.0,5.0,71,0.00,,,0.00,WUHU21623XXSP,2013-02-12 07:56:00,